Theta_e
323 319 318 319 317 316 314 316 321 320 321 321 321 321 321 319 319 321 321 323 324 322
322 321 319 320 319 316 318 317 319 320 320 320 320 320 320 318 319 320 320 321 323 322
320 320 320 318 317 317 318 320 320 319 319 318 318 317 316 316 317 316 317 319 321 322
320 319 319 317 317 318 319 320 319 318 317 316 315 315 313 313 313 313 315 317 319 320
319 318 317 316 317 319 319 319 318 317 315 314 313 313 311 311 312 311 310 311 314 316
317 316 316 316 317 318 318 318 318 316 313 311 312 311 313 311 310 311 311 311 310 313
316 315 314 315 316 316 317 316 315 314 313 313 313 313 313 311 310 311 312 314 313 312
314 314 313 313 314 315 315 314 313 312 312 313 312 312 313 311 310 309 310 310 311 310
312 312 311 312 312 313 312 310 309 310 310 311 312 308 305 308 310 310 308 306 308 311
310 310 310 310 309 307 306 307 306 307 309 310 311 305 303 304 308 307 306 305 306 307
309 308 309 308 306 305 305 304 305 305 307 307 310 304 302 303 307 307 307 306 305 306
308 308 306 304 304 303 303 304 304 305 306 306 309 303 300 302 307 305 306 307 307 306
307 305 304 303 303 303 303 302 303 303 306 304 306 303 299 301 304 303 304 305 305 304
304 303 303 302 302 302 301 301 301 302 303 304 305 306 300 298 300 301 300 300 301 306
Wind_Speed
7 7 7 8 8 9 9 9 10 10 11 12 12 11 12 11 12 13 13 17 15 13
8 9 8 10 9 9 9 9 11 12 12 13 13 13 13 12 13 14 14 15 16 15
8 8 9 9 11 12 12 12 12 13 13 14 14 14 14 13 14 14 13 13 16 16
9 9 10 10 11 12 12 12 13 13 14 14 15 14 14 15 16 16 16 16 17 19
9 10 11 11 13 13 13 12 13 14 14 15 15 15 16 17 16 17 18 19 20 21
10 11 12 13 13 13 14 14 14 14 15 14 15 17 16 15 17 18 19 19 20 21
11 12 12 13 14 14 14 15 15 15 14 15 16 17 18 16 17 18 20 19 18 20
11 12 13 14 14 14 15 15 15 15 16 16 15 14 17 17 18 19 20 19 19 18
11 12 13 13 14 15 15 15 15 15 17 18 13 19 17 20 17 18 18 18 20 21
12 12 13 13 14 15 15 15 16 16 17 18 19 20 18 23 18 18 18 19 19 19
12 13 13 14 14 15 14 15 15 16 19 18 18 21 18 22 17 17 20 20 22 22
12 13 14 14 15 15 15 15 15 17 19 21 20 21 18 16 16 18 21 19 21 23
12 12 14 15 15 14 14 17 15 19 20 24 21 24 19 17 14 18 15 17 20 30
11 12 13 13 14 14 13 15 18 19 19 20 20 22 20 18 15 16 15 15 15 15
Wind_Direction
238 258 279 278 306 295 301 296 303 291 283 276 271 266 262 259 255 257 257 253 252 262
240 253 281 286 286 284 290 283 281 284 282 277 273 269 267 259 259 256 257 257 256 248
246 259 273 281 284 285 282 278 276 277 278 276 274 270 268 264 259 257 259 258 254 254
258 271 280 282 283 282 280 275 273 273 272 270 268 265 262 259 265 265 263 258 257 257
266 276 281 283 284 282 277 276 274 273 273 271 271 266 260 262 264 259 253 253 258 260
271 281 284 283 283 281 280 279 278 275 272 267 262 263 258 253 256 259 256 256 255 257
277 286 288 288 284 282 282 281 279 275 272 266 264 262 260 256 251 250 255 255 242 248
283 286 287 285 285 286 283 281 281 278 272 267 263 263 262 252 250 250 250 251 255 246
286 286 286 289 289 288 290 290 285 278 271 269 264 264 243 250 259 255 253 249 247 246
289 287 290 297 296 291 287 285 280 277 277 275 271 262 255 248 252 254 249 247 247 245
292 296 295 298 294 292 288 284 279 277 277 275 271 271 252 251 256 257 252 245 244 241
300 299 302 295 295 295 287 286 282 280 280 277 277 273 267 263 271 267 259 250 242 238
302 305 296 299 295 292 286 286 287 287 285 283 281 278 270 268 269 267 262 255 253 239
304 299 300 298 295 295 294 291 289 290 290 288 281 280 274 270 267 264 264 260 255 245